User: anonymous
Location: Caltech
(34.1382°N, 118.1253°W)
Time: 01:41:13
(UTC-07:00)
Language:

Uribyol 2 - Orbit

View from above orbital plane
View from above orbital plane
View from above satellite
View from above satellite

Ground track
Ground track

The orbit data is extracted from the following two-line orbital elements,

1 22828U 93061F   14209.05030149  .00000073  00000-0  45175-4 0  6644
2 22828 098.6504 154.4291 0010864 137.5363 222.6662 14.30324159 55085
Epoch (UTC): 28 July 2014 01:12:26
Eccentricity: 0.0010864
inclination: 98.6504°
perigee height: 783 km
apogee height: 798 km
right ascension of ascending node: 154.4291°
argument of perigee: 137.5363°
revolutions per day: 14.30324159
mean anomaly at epoch: 222.6662°
orbit number at epoch: 5508

The dashed part of the orbit path shows where the satellite is in the earth's shadow,  

DLR